Stations météo

réclame
Mon MeteoGroup
Langres, France (7283): Température de l'air & dewpoint: 13.07.2018 15:00:00 - 19.07.2018 15:00:00 (CEST)Langres, France (7283): Température de l'air 5cm: 13.07.2018 15:00:00 - 19.07.2018 15:00:00 (CEST)Langres, France (7283): Vitesse du vent & gusts: 13.07.2018 15:00:00 - 19.07.2018 15:00:00 (CEST)Langres, France (7283): Direction du vent: 13.07.2018 15:00:00 - 19.07.2018 15:00:00 (CEST)Langres, France (7283): reduced air pressure: 13.07.2018 15:00:00 - 19.07.2018 15:00:00 (CEST)Langres, France (7283): visibility: 13.07.2018 15:00:00 - 19.07.2018 15:00:00 (CEST)Langres, France (7283): Ensoleillement: 13.07.2018 15:00:00 - 19.07.2018 15:00:00 (CEST)Langres, France (7283): Quantités de précipitations: 13.07.2018 15:00:00 - 19.07.2018 15:00:00 (CEST)
Date & Time tt [°C] td [°C] tt 5cm [°C] ff [km/h] ff [knt] fx [km/h] fx [knt] dd ppp [hPa] vv [km] sd [min] rr [mm]
19.07.2018 15:00:00 29,0 10,2 30,9 8 4 19 10 ENE 1014,0 20 49 0,0
19.07.2018 14:00:00 28,0 10,7 29,9 6 4 22 12 E 1014,5 20 43 0,0
19.07.2018 13:00:00 27,6 10,8 30,7 9 5 29 15 ENE 1014,9 20 55 0,0
19.07.2018 12:00:00 26,7 10,8 32,2 10 5 21 12 NE 1015,2 20 60 0,0
19.07.2018 11:00:00 25,0 11,5 30,6 5 3 13 7 NE 1015,5 20 60 0,0
19.07.2018 10:00:00 22,9 11,3 26,9 4 2 14 8 ENE 1015,9 20 60 0,0
19.07.2018 09:00:00 20,6 10,7 21,1 8 4 16 8 NE 1016,4 20 55 0,0
19.07.2018 08:00:00 18,8 10,1 17,6 8 4 16 9 NE 1016,4 20 42 0,0
19.07.2018 07:00:00 17,3 9,2 12,5 7 4 13 7 NNE 1016,5 20 6 0,0
19.07.2018 06:00:00 16,9 9,3 12,4 5 3 8 4 N 1016,7 20 0 0,0
19.07.2018 05:00:00 17,9 9,5 15,4 5 3 11 6 NE 1016,3 20 0 0,0
19.07.2018 04:00:00 18,6 9,6 16,6 6 3 16 9 NNE 1016,0 20 0 0,0
19.07.2018 03:00:00 18,8 10,1 16,9 6 4 16 8 NNE 1016,4 20 0 0,0
19.07.2018 02:00:00 19,8 9,9 17,8 7 4 16 9 NNE 1016,5 20 0 0,0
19.07.2018 01:00:00 20,3 10,1 18,0 8 4 15 8 N 1016,1 20 0 0,0
19.07.2018 00:00:00 20,8 10,3 18,2 8 4 15 8 N 1015,9 20 0 0,0
18.07.2018 23:00:00 21,6 10,4 18,5 7 4 17 9 N 1015,1 20 0 0,0
18.07.2018 22:00:00 22,6 10,1 17,5 7 4 13 7 NNE 1014,5 20 0 0,0
18.07.2018 21:00:00 24,5 7,6 18,3 3 2 8 5 NE 1014,1 20 47 0,0
18.07.2018 20:00:00 27,6 6,9 31,4 2 1 13 7 NE 1013,5 20 60 0,0
18.07.2018 19:00:00 27,9 6,0 34,2 4 2 13 7 NE 1013,4 20 60 0,0
18.07.2018 18:00:00 28,0 6,7 33,5 5 3 14 8 ENE 1013,6 20 60 0,0
18.07.2018 17:00:00 28,0 7,3 34,2 8 4 17 9 N 1014,0 20 60 0,0
18.07.2018 16:00:00 28,3 8,6 31,6 4 2 21 11 ENE 1014,4 20 56 0,0
18.07.2018 15:00:00 27,6 8,9 29,8 8 4 19 11 E 1014,8 20 53 0,0
18.07.2018 14:00:00 26,3 9,2 33,0 9 5 24 13 NNE 1015,6 20 60 0,0
18.07.2018 13:00:00 26,8 11,7 33,1 8 4 22 12 ESE 1015,6 19 60 0,0
18.07.2018 12:00:00 25,4 12,3 28,5 9 5 18 10 E 1016,1 20 54 0,0
18.07.2018 11:00:00 24,3 12,9 30,0 4 2 10 6 ENE 1016,5 20 60 0,0
18.07.2018 10:00:00 21,7 12,8 26,1 4 2 14 8 N 1017,2 20 60 0,0
18.07.2018 09:00:00 20,3 12,0 23,9 6 4 12 7 NE 1017,2 20 60 0,0
18.07.2018 08:00:00 19,0 11,3 19,2 5 3 14 7 NE 1017,4 20 60 0,0
18.07.2018 07:00:00 17,2 11,2 13,8 6 3 11 6 NNE 1017,6 20 35 0,0
18.07.2018 06:00:00 16,2 11,1 10,6 6 4 13 7 NNE 1017,7 20 0 0,0
18.07.2018 05:00:00 15,4 11,4 9,2 5 3 10 5 NNE 1018,0 20 0 0,0
18.07.2018 04:00:00 15,6 11,0 9,6 5 3 9 5 N 1018,0 20 0 0,0
18.07.2018 03:00:00 16,7 11,0 10,7 5 3 10 5 N 1017,9 20 0 0,0
18.07.2018 02:00:00 16,9 10,3 10,8 5 3 11 6 NW 1018,1 20 0 0,0
18.07.2018 01:00:00 17,6 9,7 13,3 6 3 12 7 W 1018,0 20 0 0,0
18.07.2018 00:00:00 17,4 9,8 14,1 6 3 12 6 WSW 1018,0 20 0 0,0
17.07.2018 23:00:00 18,9 9,9 16,7 8 4 18 10 WSW 1017,5 20 0 0,0
17.07.2018 22:00:00 20,5 10,3 18,2 8 5 19 10 W 1017,0 20 4 0,0
17.07.2018 21:00:00 22,7 10,5 21,9 13 7 28 15 W 1016,1 20 60 0,0
17.07.2018 20:00:00 24,7 10,6 26,7 16 8 27 15 W 1015,4 20 60 0,0
17.07.2018 19:00:00 25,7 11,1 28,4 15 8 31 17 WSW 1015,1 20 56 0,0
17.07.2018 18:00:00 26,7 12,0 28,4 19 10 35 19 WSW 1014,8 20 56 0,0
17.07.2018 17:00:00 27,0 11,9 27,4 17 9 32 18 W 1014,8 20 47 0,0
17.07.2018 16:00:00 27,3 10,5 27,9 17 9 32 17 WSW 1014,8 20 48 0,0
17.07.2018 15:00:00 25,9 11,3 27,4 16 9 29 15 WSW 1015,2 20 26 0,0
17.07.2018 14:00:00 26,9 11,4 27,2 13 7 23 12 W 1015,2 20 39 0,0
17.07.2018 13:00:00 26,4 11,7 28,8 9 5 22 12 WSW 1015,7 20 57 0,0
17.07.2018 12:00:00 25,1 11,3 30,6 7 4 19 11 WNW 1015,9 20 60 0,0
17.07.2018 11:00:00 23,6 11,9 30,6 9 5 23 13 W 1015,9 20 60 0,0
17.07.2018 10:00:00 21,8 12,1 20,9 8 5 17 9 W 1015,9 20 27 0,0
17.07.2018 09:00:00 19,5 11,3 19,3 5 3 12 7 W 1016,0 20 6 0,0
17.07.2018 08:00:00 18,5 11,1 17,8 9 5 16 8 W 1015,7 20 0 0,0
17.07.2018 07:00:00 18,1 10,7 17,5 12 7 24 13 W 1015,4 20 0 0,0
17.07.2018 06:00:00 18,3 10,4 17,1 14 8 27 14 W 1015,0 20 0 0,0
17.07.2018 05:00:00 18,2 9,8 15,4 13 7 23 13 WNW 1014,7 20 0 0,0
17.07.2018 04:00:00 17,9 9,8 15,3 8 4 18 10 W 1014,6 20 0 0,0
17.07.2018 03:00:00 18,4 9,7 16,2 10 5 22 12 WNW 1014,5 20 0 0,0
17.07.2018 02:00:00 19,3 9,8 16,9 10 5 24 13 WNW 1014,2 20 0 0,0
17.07.2018 01:00:00 20,2 9,4 16,4 9 5 16 9 W 1013,8 20 0 0,0
17.07.2018 00:00:00 21,3 9,5 15,9 6 4 13 7 WNW 1013,4 20 0 0,0
16.07.2018 23:00:00 21,6 9,5 13,9 5 3 8 5 WNW 1012,9 20 0 0,0
16.07.2018 22:00:00 21,8 10,6 14,7 5 3 7 4 NNW 1012,2 15 5 0,0
16.07.2018 21:00:00 24,7 9,4 21,7 5 3 16 8 N 1011,0 20 50 0,0
16.07.2018 20:00:00 26,3 8,7 26,9 7 4 17 9 N 1010,0 20 51 0,0
16.07.2018 19:00:00 27,2 9,5 35,1 8 4 22 12 N 1009,5 20 60 0,0
16.07.2018 18:00:00 28,3 8,6 30,4 4 2 18 10 NE 1009,1 20 53 0,0
16.07.2018 17:00:00 28,8 9,0 32,2 5 3 19 10 N 1009,2 20 54 0,0
16.07.2018 16:00:00 27,6 8,5 29,1 4 2 20 11 NNE 1009,9 20 43 0,0
16.07.2018 15:00:00 27,6 9,4 32,2 8 4 21 11 NE 1010,2 18 57 0,0
16.07.2018 14:00:00 27,1 11,6 36,2 8 4 20 11 NE 1010,7 20 60 0,0
16.07.2018 13:00:00 26,6 11,5 34,9 5 3 18 10 E 1011,4 20 60 0,0
16.07.2018 12:00:00 24,8 11,7 31,7 8 4 19 11 NE 1011,9 20 60 0,0
16.07.2018 11:00:00 23,2 13,1 30,9 6 3 11 6 ENE 1012,3 20 60 0,0
16.07.2018 10:00:00 20,7 12,4 26,7 4 2 10 5 ENE 1012,9 20 60 0,0
16.07.2018 09:00:00 19,1 12,8 20,5 4 2 8 5 E 1013,3 20 60 0,0
16.07.2018 08:00:00 17,5 11,7 15,2 3 2 5 3 E 1013,8 20 60 0,0
16.07.2018 07:00:00 14,7 10,1 8,6 3 1 10 6 E 1014,4 20 37 0,0
16.07.2018 06:00:00 14,8 8,9 8,9 2 1 10 5 SSW 1014,3 20 0 0,0
16.07.2018 05:00:00 15,5 8,5 8,9 5 3 11 6 SW 1014,3 20 0 0,0
16.07.2018 04:00:00 16,0 9,0 11,8 8 5 15 8 WSW 1014,5 20 0 0,0
16.07.2018 03:00:00 16,6 9,8 12,8 10 5 18 10 WSW 1014,6 20 0 0,0
16.07.2018 02:00:00 15,8 10,3 9,2 9 5 17 9 WSW 1015,3 20 0 0,0
16.07.2018 01:00:00 15,7 9,6 8,7 5 3 14 8 SW 1015,5 20 0 0,0
16.07.2018 00:00:00 14,6 9,2 8,9 3 2 8 5 ESE 1015,8 20 0 0,0
15.07.2018 23:00:00 16,0 10,3 9,9 5 3 11 6 ENE 1015,7 20 0 0,0
15.07.2018 22:00:00 17,1 10,9 11,5 2 1 18 10 SSE 1014,8 3,7 6 0,0
15.07.2018 21:00:00 20,0 11,0 17,9 7 4 14 7 WSW 1013,7 20 47 0,0
15.07.2018 20:00:00 19,0 10,5 18,0 3 1 19 11 SSW 1013,4 20 0 0,0
15.07.2018 19:00:00 20,0 10,4 18,7 11 6 40 21 NW 1014,9 20 0 0,0
15.07.2018 18:00:00 22,5 12,7 21,4 9 5 35 19 WNW 1014,0 20 0 0,0
15.07.2018 17:00:00 23,6 16,9 24,3 8 4 14 8 WNW 1012,9 20 0 0,0
15.07.2018 16:00:00 22,6 16,6 22,7 5 3 15 8 SW 1012,9 20 0 0,0
15.07.2018 15:00:00 22,5 15,6 21,8 9 5 12 6 WSW 1013,7 20 7 0,0
15.07.2018 14:00:00 20,0 14,8 15,4 5 3 19 11 SSW 1014,2 20 0 4,0
15.07.2018 13:00:00 18,9 13,1 16,0 14 7 29 16 S 1015,8 6 0 5,1
15.07.2018 12:00:00 26,6 13,3 30,7 7 4 14 8 ENE 1013,5 20 56 0,0
15.07.2018 11:00:00 25,3 14,1 31,6 6 3 18 10 ENE 1014,1 20 60 0,0
15.07.2018 10:00:00 24,2 13,7 27,6 4 2 9 5 NE 1014,2 20 60 0,0
15.07.2018 09:00:00 21,9 13,0 21,9 5 3 11 6 E 1014,6 20 58 0,0
15.07.2018 08:00:00 19,8 12,1 15,0 6 3 11 6 ENE 1014,9 20 44 0,0
15.07.2018 07:00:00 17,2 11,2 13,4 5 3 13 7 ENE 1015,2 20 5 0,0
15.07.2018 06:00:00 17,3 10,9 11,6 8 4 16 8 ENE 1015,2 20 0 0,0
15.07.2018 05:00:00 18,4 10,7 13,3 7 4 14 8 NE 1015,2 20 0 0,0
15.07.2018 04:00:00 18,5 10,3 13,1 6 4 9 5 NNE 1015,3 20 0 0,0
15.07.2018 03:00:00 19,1 10,4 14,2 6 4 13 7 NNE 1015,5 20 0 0,0
15.07.2018 02:00:00 19,8 9,9 14,4 6 4 12 6 NNE 1015,7 20 0 0,0
15.07.2018 01:00:00 20,6 10,7 14,4 6 3 13 7 NNE 1015,7 20 0 0,0
15.07.2018 00:00:00 22,1 10,6 14,4 9 5 18 10 N 1015,4 20 0 0,0
14.07.2018 23:00:00 23,1 10,2 15,3 5 3 13 7 NW 1015,2 20 0 0,0
14.07.2018 22:00:00 23,9 10,6 17,9 6 3 13 7 NNW 1015,0 20 7 0,0
14.07.2018 21:00:00 25,9 9,7 22,2 6 3 13 7 NW 1014,4 20 26 0,0
14.07.2018 20:00:00 27,8 9,6 26,3 5 3 12 7 NW 1013,9 20 52 0,0
14.07.2018 19:00:00 28,8 9,0 32,4 6 3 11 6 WSW 1014,0 20 60 0,0
14.07.2018 18:00:00 27,5 8,4 25,7 0 0 8 4 N 1014,6 20 4 0,0
14.07.2018 17:00:00 27,7 9,0 29,5 4 2 19 10 NE 1014,8 20 38 0,0
14.07.2018 16:00:00 29,3 8,9 30,9 6 3 21 12 S 1014,8 20 40 0,0
14.07.2018 15:00:00 29,0 9,2 33,8 5 3 20 11 E 1015,2 20 49 0,0
14.07.2018 14:00:00 28,0 10,2 29,8 5 3 14 8 S 1015,8 20 28 0,0
14.07.2018 13:00:00 27,4 9,2 32,6 8 5 16 9 E 1016,2 19 51 0,0
14.07.2018 12:00:00 26,5 9,8 31,2 5 3 14 7 NNE 1016,7 20 51 0,0
14.07.2018 11:00:00 25,4 10,8 32,5 6 3 12 7 N 1016,9 20 60 0,0
14.07.2018 10:00:00 24,0 12,3 26,8 3 2 9 5 ENE 1017,3 20 60 0,0
14.07.2018 09:00:00 20,9 12,3 23,1 4 2 7 4 E 1018,2 20 53 0,0
14.07.2018 08:00:00 20,1 12,1 15,5 3 2 5 3 ENE 1017,9 20 60 0,0
14.07.2018 07:00:00 16,1 11,0 10,2 0 0 6 4 N 1018,6 20 39 0,0
14.07.2018 06:00:00 16,1 11,0 10,5 5 3 12 7 NNE 1018,4 20 0 0,0
14.07.2018 05:00:00 16,8 11,1 11,7 9 5 12 7 NE 1018,4 20 0 0,0
14.07.2018 04:00:00 17,5 11,3 13,3 10 5 13 7 NNE 1018,4 20 0 0,0
14.07.2018 03:00:00 17,9 11,2 13,1 9 5 13 7 NNE 1018,3 20 0 0,0
14.07.2018 02:00:00 18,3 10,9 12,2 9 5 13 7 NNE 1018,7 20 0 0,0
14.07.2018 01:00:00 17,9 9,8 10,3 7 4 11 6 NNE 1018,8 20 0 0,0
14.07.2018 00:00:00 18,5 9,6 10,3 5 3 8 4 NW 1018,3 20 0 0,0
13.07.2018 23:00:00 20,5 9,4 11,5 6 3 9 5 NW 1017,9 20 0 0,0
13.07.2018 22:00:00 21,8 9,0 13,6 6 4 12 6 WNW 1017,6 20 8 0,0
13.07.2018 21:00:00 24,6 8,9 19,0 5 3 6 3 WSW 1016,5 20 57 0,0
13.07.2018 20:00:00 26,2 8,7 23,6 0 0 11 6 N 1016,0 20 42 0,0
13.07.2018 19:00:00 26,6 8,1 24,2 4 2 14 7 NNW 1016,1 20 31 0,0
13.07.2018 18:00:00 26,1 8,1 27,0 6 3 16 9 SW 1016,5 20 36 0,0
13.07.2018 17:00:00 27,3 8,2 27,1 5 3 12 6 W 1016,4 20 31 0,0
13.07.2018 16:00:00 26,0 8,0 29,3 4 2 18 10 SE 1017,1 18 34 0,0
13.07.2018 15:00:00 26,7 8,6 28,2 6 4 19 10 NW 1017,1 20 44 0,0

tt = Température de l'air
td = dewpoint
tt 5cm = Température de l'air 5cm
ff = Vitesse du vent
fx = gusts
dd = Direction du vent
ppp = reduced air pressure
vv = visibility
sd = Ensoleillement
rr = Quantités de précipitations

stations d'obs. à proximité